Year,Month,Day,Hour,Minute,Value (Times are PST for temperature in C)
2020,10,17,00,00,10.50
2020,10,17,00,01,10.50
2020,10,17,00,02,10.50
2020,10,17,00,03,10.50
2020,10,17,00,04,10.50
2020,10,17,00,05,10.50
2020,10,17,00,06,10.50
2020,10,17,00,07,10.50
2020,10,17,00,08,10.50
2020,10,17,00,09,10.50
2020,10,17,00,10,10.50
2020,10,17,00,11,10.50
2020,10,17,00,12,10.50
2020,10,17,00,13,10.40
2020,10,17,00,14,10.40
2020,10,17,00,15,10.40
2020,10,17,00,16,10.40
2020,10,17,00,17,10.40
2020,10,17,00,18,10.40
2020,10,17,00,19,10.40
2020,10,17,00,20,10.40
2020,10,17,00,21,10.40
2020,10,17,00,22,10.40
2020,10,17,00,23,10.40
2020,10,17,00,24,10.40
2020,10,17,00,25,10.30
2020,10,17,00,26,10.30
2020,10,17,00,27,10.30
2020,10,17,00,28,10.30
2020,10,17,00,29,10.30
2020,10,17,00,30,10.30
2020,10,17,00,31,10.30
2020,10,17,00,32,10.30
2020,10,17,00,33,10.30
2020,10,17,00,34,10.20
2020,10,17,00,35,10.20
2020,10,17,00,36,10.20
2020,10,17,00,37,10.20
2020,10,17,00,38,10.20
2020,10,17,00,39,10.20
2020,10,17,00,40,10.20
2020,10,17,00,41,10.20
2020,10,17,00,42,10.20
2020,10,17,00,43,10.30
2020,10,17,00,44,10.30
2020,10,17,00,45,10.30
2020,10,17,00,46,10.30
2020,10,17,00,47,10.30
2020,10,17,00,48,10.30
2020,10,17,00,49,10.30
2020,10,17,00,50,10.30
2020,10,17,00,51,10.30
2020,10,17,00,52,10.30
2020,10,17,00,53,10.30
2020,10,17,00,54,10.40
2020,10,17,00,55,10.40
2020,10,17,00,56,10.40
2020,10,17,00,57,10.40
2020,10,17,00,58,10.40
2020,10,17,00,59,10.40
2020,10,17,01,00,10.40
2020,10,17,01,01,10.40
2020,10,17,01,02,10.40
2020,10,17,01,03,10.40
2020,10,17,01,04,10.40
2020,10,17,01,05,10.40
2020,10,17,01,06,10.50
2020,10,17,01,07,10.50
2020,10,17,01,08,10.50
2020,10,17,01,09,10.50
2020,10,17,01,10,10.50
2020,10,17,01,11,10.50
2020,10,17,01,12,10.50
2020,10,17,01,13,10.60
2020,10,17,01,14,10.60
2020,10,17,01,15,10.60
2020,10,17,01,16,10.60
2020,10,17,01,17,10.60
2020,10,17,01,18,10.60
2020,10,17,01,19,10.60
2020,10,17,01,20,10.60
2020,10,17,01,21,10.60
2020,10,17,01,22,10.60
2020,10,17,01,23,10.60
2020,10,17,01,24,10.70
2020,10,17,01,25,10.70
2020,10,17,01,26,10.70
2020,10,17,01,27,10.70
2020,10,17,01,28,10.70
2020,10,17,01,29,10.70
2020,10,17,01,30,10.70
2020,10,17,01,31,10.70
2020,10,17,01,32,10.70
2020,10,17,01,33,10.70
2020,10,17,01,34,10.70
2020,10,17,01,35,10.70
2020,10,17,01,36,10.70
2020,10,17,01,37,10.70
2020,10,17,01,38,10.70
2020,10,17,01,39,10.70
2020,10,17,01,40,10.70
2020,10,17,01,41,10.70
2020,10,17,01,42,10.80
2020,10,17,01,43,10.70
2020,10,17,01,44,10.70
2020,10,17,01,45,10.70
2020,10,17,01,46,10.70
2020,10,17,01,47,10.70
2020,10,17,01,48,10.70
2020,10,17,01,49,10.70
2020,10,17,01,50,10.70
2020,10,17,01,51,10.80
2020,10,17,01,52,10.80
2020,10,17,01,53,10.80
2020,10,17,01,54,10.80
2020,10,17,01,55,10.80
2020,10,17,01,56,10.80
2020,10,17,01,57,10.80
2020,10,17,01,58,10.80
2020,10,17,01,59,10.80
2020,10,17,02,00,10.80
2020,10,17,02,01,10.80
2020,10,17,02,02,10.80
2020,10,17,02,03,10.80
2020,10,17,02,04,10.80
2020,10,17,02,05,10.80
2020,10,17,02,06,10.80
2020,10,17,02,07,10.80
2020,10,17,02,08,10.80
2020,10,17,02,09,10.80
2020,10,17,02,10,10.80
2020,10,17,02,11,10.80
2020,10,17,02,12,10.80
2020,10,17,02,13,10.80
2020,10,17,02,14,10.80
2020,10,17,02,15,10.80
2020,10,17,02,16,10.80
2020,10,17,02,17,10.80
2020,10,17,02,18,10.80
2020,10,17,02,19,10.80
2020,10,17,02,20,10.80
2020,10,17,02,21,10.80
2020,10,17,02,22,10.80
2020,10,17,02,23,10.80
2020,10,17,02,24,10.80
2020,10,17,02,25,10.80
2020,10,17,02,26,10.80
2020,10,17,02,27,10.80
2020,10,17,02,28,10.80
2020,10,17,02,29,10.80
2020,10,17,02,30,10.80
2020,10,17,02,31,10.80
2020,10,17,02,32,10.80
2020,10,17,02,33,10.80
2020,10,17,02,34,10.80
2020,10,17,02,35,10.80
2020,10,17,02,36,10.80
2020,10,17,02,37,10.80
2020,10,17,02,38,10.80
2020,10,17,02,39,10.80
2020,10,17,02,40,10.80
2020,10,17,02,41,10.80
2020,10,17,02,42,10.80
2020,10,17,02,43,10.80
2020,10,17,02,44,10.80
2020,10,17,02,45,10.80
2020,10,17,02,46,10.80
2020,10,17,02,47,10.90
2020,10,17,02,48,10.80
2020,10,17,02,49,10.80
2020,10,17,02,50,10.90
2020,10,17,02,51,10.80
2020,10,17,02,52,10.90
2020,10,17,02,53,10.80
2020,10,17,02,54,10.80
2020,10,17,02,55,10.80
2020,10,17,02,56,10.80
2020,10,17,02,57,10.80
2020,10,17,02,58,10.90
2020,10,17,02,59,10.90
2020,10,17,03,00,10.90
2020,10,17,03,01,10.90
2020,10,17,03,02,10.90
2020,10,17,03,03,10.90
2020,10,17,03,04,10.90
2020,10,17,03,05,11.00
2020,10,17,03,06,11.00
2020,10,17,03,07,11.00
2020,10,17,03,08,11.00
2020,10,17,03,09,11.00
2020,10,17,03,10,11.00
2020,10,17,03,11,11.00
2020,10,17,03,12,11.00
2020,10,17,03,13,11.00
2020,10,17,03,14,11.00
2020,10,17,03,15,11.00
2020,10,17,03,16,11.00
2020,10,17,03,17,11.00
2020,10,17,03,18,11.00
2020,10,17,03,19,11.00
2020,10,17,03,20,11.00
2020,10,17,03,21,11.00
2020,10,17,03,22,11.00
2020,10,17,03,23,11.00
2020,10,17,03,24,11.00
2020,10,17,03,25,11.00
2020,10,17,03,26,11.00
2020,10,17,03,27,11.00
2020,10,17,03,28,11.00
2020,10,17,03,29,11.00
2020,10,17,03,30,11.00
2020,10,17,03,31,11.00
2020,10,17,03,32,11.00
2020,10,17,03,33,11.00
2020,10,17,03,34,11.00
2020,10,17,03,35,11.00
2020,10,17,03,36,11.00
2020,10,17,03,37,11.00
2020,10,17,03,38,11.00
2020,10,17,03,39,11.00
2020,10,17,03,40,11.00
2020,10,17,03,41,11.00
2020,10,17,03,42,11.00
2020,10,17,03,43,10.90
2020,10,17,03,44,10.90
2020,10,17,03,45,10.90
2020,10,17,03,46,10.90
2020,10,17,03,47,10.90
2020,10,17,03,48,10.90
2020,10,17,03,49,10.90
2020,10,17,03,50,10.90
2020,10,17,03,51,10.90
2020,10,17,03,52,10.90
2020,10,17,03,53,10.90
2020,10,17,03,54,10.90
2020,10,17,03,55,10.90
2020,10,17,03,56,10.90
2020,10,17,03,57,10.90
2020,10,17,03,58,10.90
2020,10,17,03,59,10.90
2020,10,17,04,00,10.90
2020,10,17,04,01,10.90
2020,10,17,04,02,10.90
2020,10,17,04,03,10.90
2020,10,17,04,04,10.90
2020,10,17,04,05,10.90
2020,10,17,04,06,10.90
2020,10,17,04,07,10.90
2020,10,17,04,08,10.80
2020,10,17,04,09,10.80
2020,10,17,04,10,10.80
2020,10,17,04,11,10.80
2020,10,17,04,12,10.80
2020,10,17,04,13,10.80
2020,10,17,04,14,10.80
2020,10,17,04,15,10.80
2020,10,17,04,16,10.80
2020,10,17,04,17,10.80
2020,10,17,04,18,10.80
2020,10,17,04,19,10.80
2020,10,17,04,20,10.80
2020,10,17,04,21,10.80
2020,10,17,04,22,10.70
2020,10,17,04,23,10.70
2020,10,17,04,24,10.70
2020,10,17,04,25,10.70
2020,10,17,04,26,10.70
2020,10,17,04,27,10.70
2020,10,17,04,28,10.70
2020,10,17,04,29,10.70
2020,10,17,04,30,10.70
2020,10,17,04,31,10.60
2020,10,17,04,32,10.60
2020,10,17,04,33,10.60
2020,10,17,04,34,10.60
2020,10,17,04,35,10.60
2020,10,17,04,36,10.60
2020,10,17,04,37,10.60
2020,10,17,04,38,10.60
2020,10,17,04,39,10.50
2020,10,17,04,40,10.50
2020,10,17,04,41,10.50
2020,10,17,04,42,10.50
2020,10,17,04,43,10.40
2020,10,17,04,44,10.40
2020,10,17,04,45,10.40
2020,10,17,04,46,10.40
2020,10,17,04,47,10.40
2020,10,17,04,48,10.40
2020,10,17,04,49,10.30
2020,10,17,04,50,10.30
2020,10,17,04,51,10.30
2020,10,17,04,52,10.30
2020,10,17,04,53,10.30
2020,10,17,04,54,10.20
2020,10,17,04,55,10.20
2020,10,17,04,56,10.20
2020,10,17,04,57,10.20
2020,10,17,04,58,10.20
2020,10,17,04,59,10.20
2020,10,17,05,00,10.10
2020,10,17,05,01,10.10
2020,10,17,05,02,10.10
2020,10,17,05,03,10.10
2020,10,17,05,04,10.00
2020,10,17,05,05,10.00
2020,10,17,05,06,10.00
2020,10,17,05,07,10.00
2020,10,17,05,08,9.90
2020,10,17,05,09,9.90
2020,10,17,05,10,9.90
2020,10,17,05,11,9.90
2020,10,17,05,12,9.90
2020,10,17,05,13,9.90
2020,10,17,05,14,9.90
2020,10,17,05,15,9.80
2020,10,17,05,16,9.80
2020,10,17,05,17,9.80
2020,10,17,05,18,9.80
2020,10,17,05,19,9.80
2020,10,17,05,20,9.80
2020,10,17,05,21,9.80
2020,10,17,05,22,9.80
2020,10,17,05,23,9.80
2020,10,17,05,24,9.80
2020,10,17,05,25,9.80
2020,10,17,05,26,9.80
2020,10,17,05,27,9.70
2020,10,17,05,28,9.70
2020,10,17,05,29,9.70
2020,10,17,05,30,9.70
2020,10,17,05,31,9.70
2020,10,17,05,32,9.70
2020,10,17,05,33,9.70
2020,10,17,05,34,9.70
2020,10,17,05,35,9.70
2020,10,17,05,36,9.60
2020,10,17,05,37,9.60
2020,10,17,05,38,9.60
2020,10,17,05,39,9.60
2020,10,17,05,40,9.60
2020,10,17,05,41,9.60
2020,10,17,05,42,9.50
2020,10,17,05,43,9.50
2020,10,17,05,44,9.50
2020,10,17,05,45,9.40
2020,10,17,05,46,9.40
2020,10,17,05,47,9.40
2020,10,17,05,48,9.40
2020,10,17,05,49,9.40
2020,10,17,05,50,9.30
2020,10,17,05,51,9.30
2020,10,17,05,52,9.30
2020,10,17,05,53,9.30
2020,10,17,05,54,9.30
2020,10,17,05,55,9.20
2020,10,17,05,56,9.20
2020,10,17,05,57,9.20
2020,10,17,05,58,9.20
2020,10,17,05,59,9.20
2020,10,17,06,00,9.20
2020,10,17,06,01,9.10
2020,10,17,06,02,9.10
2020,10,17,06,03,9.10
2020,10,17,06,04,9.10
2020,10,17,06,05,9.10
2020,10,17,06,06,9.00
2020,10,17,06,07,9.00
2020,10,17,06,08,9.00
2020,10,17,06,09,9.00
2020,10,17,06,10,9.00
2020,10,17,06,11,8.90
2020,10,17,06,12,8.90
2020,10,17,06,13,8.90
2020,10,17,06,14,8.90
2020,10,17,06,15,8.90
2020,10,17,06,16,8.90
2020,10,17,06,17,8.90
2020,10,17,06,18,8.90
2020,10,17,06,19,8.90
2020,10,17,06,20,8.90
2020,10,17,06,21,8.90
2020,10,17,06,22,8.90
2020,10,17,06,23,8.80
2020,10,17,06,24,8.90
2020,10,17,06,25,8.80
2020,10,17,06,26,8.80
2020,10,17,06,27,8.80
2020,10,17,06,28,8.80
2020,10,17,06,29,8.80
2020,10,17,06,30,8.80
2020,10,17,06,31,8.80
2020,10,17,06,32,8.80
2020,10,17,06,33,8.80
2020,10,17,06,34,8.80
2020,10,17,06,35,8.80
2020,10,17,06,36,8.80
2020,10,17,06,37,8.80
2020,10,17,06,38,8.90
2020,10,17,06,39,8.90
2020,10,17,06,40,8.80
2020,10,17,06,41,8.80
2020,10,17,06,42,8.80
2020,10,17,06,43,8.80
2020,10,17,06,44,8.80
2020,10,17,06,45,8.80
2020,10,17,06,46,8.80
2020,10,17,06,47,8.80
2020,10,17,06,48,8.90
2020,10,17,06,49,8.90
2020,10,17,06,50,8.90
2020,10,17,06,51,8.80
2020,10,17,06,52,8.90
2020,10,17,06,53,8.80
2020,10,17,06,54,8.80
2020,10,17,06,55,8.90
2020,10,17,06,56,8.90
2020,10,17,06,57,8.90
2020,10,17,06,58,8.90
2020,10,17,06,59,8.90
2020,10,17,07,00,8.90
2020,10,17,07,01,8.90
2020,10,17,07,02,8.90
2020,10,17,07,03,8.90
2020,10,17,07,04,8.90
2020,10,17,07,05,8.90
2020,10,17,07,06,8.90
2020,10,17,07,07,8.90
2020,10,17,07,08,8.90
2020,10,17,07,09,8.90
2020,10,17,07,10,8.90
2020,10,17,07,11,8.90
2020,10,17,07,12,8.90
2020,10,17,07,13,8.90
2020,10,17,07,14,8.80
2020,10,17,07,15,8.80
2020,10,17,07,16,8.80
2020,10,17,07,17,8.80
2020,10,17,07,18,8.80
2020,10,17,07,19,8.80
2020,10,17,07,20,8.80
2020,10,17,07,21,8.90
2020,10,17,07,22,8.80
2020,10,17,07,23,8.90
2020,10,17,07,24,8.90
2020,10,17,07,25,8.90
2020,10,17,07,26,8.90
2020,10,17,07,27,8.90
2020,10,17,07,28,8.90
2020,10,17,07,29,8.90
2020,10,17,07,30,8.90
2020,10,17,07,31,8.90
2020,10,17,07,32,8.90
2020,10,17,07,33,8.90
2020,10,17,07,34,8.90
2020,10,17,07,35,8.90
2020,10,17,07,36,8.90
2020,10,17,07,37,8.90
2020,10,17,07,38,8.90
2020,10,17,07,39,8.90
2020,10,17,07,40,9.00
2020,10,17,07,41,9.00
2020,10,17,07,42,9.00
2020,10,17,07,43,9.00
2020,10,17,07,44,9.00
2020,10,17,07,45,9.00
2020,10,17,07,46,9.00
2020,10,17,07,47,9.10
2020,10,17,07,48,9.10
2020,10,17,07,49,9.10
2020,10,17,07,50,9.10
2020,10,17,07,51,9.10
2020,10,17,07,52,9.10
2020,10,17,07,53,9.10
2020,10,17,07,54,9.20
2020,10,17,07,55,9.20
2020,10,17,07,56,9.20
2020,10,17,07,57,9.20
2020,10,17,07,58,9.20
2020,10,17,07,59,9.20
2020,10,17,08,00,9.30
2020,10,17,08,01,9.30
2020,10,17,08,02,9.30
2020,10,17,08,03,9.30
2020,10,17,08,04,9.30
2020,10,17,08,05,9.30
2020,10,17,08,06,9.40
2020,10,17,08,07,9.40
2020,10,17,08,08,9.40
2020,10,17,08,09,9.40
2020,10,17,08,10,9.50
2020,10,17,08,11,9.50
2020,10,17,08,12,9.50
2020,10,17,08,13,9.50
2020,10,17,08,14,9.60
2020,10,17,08,15,9.60
2020,10,17,08,16,9.60
2020,10,17,08,17,9.60
2020,10,17,08,18,9.70
2020,10,17,08,19,9.70
2020,10,17,08,20,9.70
2020,10,17,08,21,9.70
2020,10,17,08,22,9.70
2020,10,17,08,23,9.80
2020,10,17,08,24,9.80
2020,10,17,08,25,9.80
2020,10,17,08,26,9.80
2020,10,17,08,27,9.80
2020,10,17,08,28,9.80
2020,10,17,08,29,9.80
2020,10,17,08,30,9.90
2020,10,17,08,31,9.90
2020,10,17,08,32,9.90
2020,10,17,08,33,9.90
2020,10,17,08,34,9.90
2020,10,17,08,35,9.90
2020,10,17,08,36,9.90
2020,10,17,08,37,10.00
2020,10,17,08,38,10.00
2020,10,17,08,39,10.00
2020,10,17,08,40,10.00
2020,10,17,08,41,10.00
2020,10,17,08,42,10.10
2020,10,17,08,43,10.10
2020,10,17,08,44,10.10
2020,10,17,08,45,10.10
2020,10,17,08,46,10.10
2020,10,17,08,47,10.10
2020,10,17,08,48,10.10
2020,10,17,08,49,10.20
2020,10,17,08,50,10.20
2020,10,17,08,51,10.20
2020,10,17,08,52,10.20
2020,10,17,08,53,10.20
2020,10,17,08,54,10.20
2020,10,17,08,55,10.30
2020,10,17,08,56,10.30
2020,10,17,08,57,10.30
2020,10,17,08,58,10.30
2020,10,17,08,59,10.30
2020,10,17,09,00,10.30
2020,10,17,09,01,10.30
2020,10,17,09,02,10.40
2020,10,17,09,03,10.40
2020,10,17,09,04,10.40
2020,10,17,09,05,10.40
2020,10,17,09,06,10.40
2020,10,17,09,07,10.50
2020,10,17,09,08,10.50
2020,10,17,09,09,10.50
2020,10,17,09,10,10.50
2020,10,17,09,11,10.60
2020,10,17,09,12,10.60
2020,10,17,09,13,10.60
2020,10,17,09,14,10.70
2020,10,17,09,15,10.70
2020,10,17,09,16,10.70
2020,10,17,09,17,10.70
2020,10,17,09,18,10.70
2020,10,17,09,19,10.70
2020,10,17,09,20,10.70
2020,10,17,09,21,10.70
2020,10,17,09,22,10.80
2020,10,17,09,23,10.80
2020,10,17,09,24,10.80
2020,10,17,09,25,10.80
2020,10,17,09,26,10.90
2020,10,17,09,27,10.90
2020,10,17,09,28,10.90
2020,10,17,09,29,11.00
2020,10,17,09,30,11.00
2020,10,17,09,31,11.00
2020,10,17,09,32,11.10
2020,10,17,09,33,11.10
2020,10,17,09,34,11.10
2020,10,17,09,35,11.10
2020,10,17,09,36,11.20
2020,10,17,09,37,11.20
2020,10,17,09,38,11.20
2020,10,17,09,39,11.20
2020,10,17,09,40,11.30
2020,10,17,09,41,11.30
2020,10,17,09,42,11.30
2020,10,17,09,43,11.30
2020,10,17,09,44,11.40
2020,10,17,09,45,11.40
2020,10,17,09,46,11.40
2020,10,17,09,47,11.40
2020,10,17,09,48,11.40
2020,10,17,09,49,11.40
2020,10,17,09,50,11.40
2020,10,17,09,51,11.40
2020,10,17,09,52,11.50
2020,10,17,09,53,11.50
2020,10,17,09,54,11.50
2020,10,17,09,55,11.50
2020,10,17,09,56,11.50
2020,10,17,09,57,11.50
2020,10,17,09,58,11.60
2020,10,17,09,59,11.60
2020,10,17,10,00,11.60
2020,10,17,10,01,11.60
2020,10,17,10,02,11.60
2020,10,17,10,03,11.60
2020,10,17,10,04,11.60
2020,10,17,10,05,11.60
2020,10,17,10,06,11.70
2020,10,17,10,07,11.70
2020,10,17,10,08,11.70
2020,10,17,10,09,11.70
2020,10,17,10,10,11.70
2020,10,17,10,11,11.70
2020,10,17,10,12,11.70
2020,10,17,10,13,11.70
2020,10,17,10,14,11.70
2020,10,17,10,15,11.70
2020,10,17,10,16,11.70
2020,10,17,10,17,11.70
2020,10,17,10,18,11.70
2020,10,17,10,19,11.70
2020,10,17,10,20,11.70
2020,10,17,10,21,11.70
2020,10,17,10,22,11.70
2020,10,17,10,23,11.70
2020,10,17,10,24,11.70
2020,10,17,10,25,11.70
2020,10,17,10,26,11.70
2020,10,17,10,27,11.70
2020,10,17,10,28,11.80
2020,10,17,10,29,11.80
2020,10,17,10,30,11.80
2020,10,17,10,31,11.80
2020,10,17,10,32,11.80
2020,10,17,10,33,11.80
2020,10,17,10,34,11.80
2020,10,17,10,35,11.80
2020,10,17,10,36,11.80
2020,10,17,10,37,11.80
2020,10,17,10,38,11.80
2020,10,17,10,39,11.90
2020,10,17,10,40,11.90
2020,10,17,10,41,11.90
2020,10,17,10,42,11.90
2020,10,17,10,43,12.00
2020,10,17,10,44,12.00
2020,10,17,10,45,12.10
2020,10,17,10,46,12.10
2020,10,17,10,47,12.10
2020,10,17,10,48,12.10
2020,10,17,10,49,12.20
2020,10,17,10,50,12.20
2020,10,17,10,51,12.20
2020,10,17,10,52,12.30
2020,10,17,10,53,12.30
2020,10,17,10,54,12.30
2020,10,17,10,55,12.30
2020,10,17,10,56,12.40
2020,10,17,10,57,12.40
2020,10,17,10,58,12.50
2020,10,17,10,59,12.50
2020,10,17,11,00,12.50
2020,10,17,11,01,12.50
2020,10,17,11,02,12.50
2020,10,17,11,03,12.60
2020,10,17,11,04,12.60
2020,10,17,11,05,12.60
2020,10,17,11,06,12.60
2020,10,17,11,07,12.60
2020,10,17,11,08,12.60
2020,10,17,11,09,12.60
2020,10,17,11,10,12.60
2020,10,17,11,11,12.60
2020,10,17,11,12,12.60
2020,10,17,11,13,12.60
2020,10,17,11,14,12.60
2020,10,17,11,15,12.60
2020,10,17,11,16,12.60
2020,10,17,11,17,12.60
2020,10,17,11,18,12.60
2020,10,17,11,19,12.50
2020,10,17,11,20,12.50
2020,10,17,11,21,12.50
2020,10,17,11,22,12.50
2020,10,17,11,23,12.50
2020,10,17,11,24,12.50
2020,10,17,11,25,12.50
2020,10,17,11,26,12.50
2020,10,17,11,27,12.50
2020,10,17,11,28,12.50
2020,10,17,11,29,12.50
2020,10,17,11,30,12.50
2020,10,17,11,31,12.60
2020,10,17,11,32,12.60
2020,10,17,11,33,12.60
2020,10,17,11,34,12.60
2020,10,17,11,35,12.60
2020,10,17,11,36,12.60
2020,10,17,11,37,12.70
2020,10,17,11,38,12.70
2020,10,17,11,39,12.70
2020,10,17,11,40,12.70
2020,10,17,11,41,12.70
2020,10,17,11,42,12.70
2020,10,17,11,43,12.70
2020,10,17,11,44,12.70
2020,10,17,11,45,12.70
2020,10,17,11,46,12.70
2020,10,17,11,47,12.70
2020,10,17,11,48,12.70
2020,10,17,11,49,12.70
2020,10,17,11,50,12.70
2020,10,17,11,51,12.70
2020,10,17,11,52,12.70
2020,10,17,11,53,12.70
2020,10,17,11,54,12.70
2020,10,17,11,55,12.70
2020,10,17,11,56,12.80
2020,10,17,11,57,12.80
2020,10,17,11,58,12.80
2020,10,17,11,59,12.80
2020,10,17,12,00,12.80
2020,10,17,12,01,12.80
2020,10,17,12,02,12.90
2020,10,17,12,03,12.90
2020,10,17,12,04,12.90
2020,10,17,12,05,12.90
2020,10,17,12,06,12.90
2020,10,17,12,07,12.90
2020,10,17,12,08,13.00
2020,10,17,12,09,13.00
2020,10,17,12,10,13.00
2020,10,17,12,11,13.00
2020,10,17,12,12,13.00
2020,10,17,12,13,13.00
2020,10,17,12,14,13.00
2020,10,17,12,15,13.00
2020,10,17,12,16,13.00
2020,10,17,12,17,13.00
2020,10,17,12,18,13.10
2020,10,17,12,19,13.10
2020,10,17,12,20,13.10
2020,10,17,12,21,13.10
2020,10,17,12,22,13.10
2020,10,17,12,23,13.20
2020,10,17,12,24,13.20
2020,10,17,12,25,13.20
2020,10,17,12,26,13.20
2020,10,17,12,27,13.20
2020,10,17,12,28,13.20
2020,10,17,12,29,13.20
2020,10,17,12,30,13.30
2020,10,17,12,31,13.30
2020,10,17,12,32,13.30
2020,10,17,12,33,13.30
2020,10,17,12,34,13.30
2020,10,17,12,35,13.30
2020,10,17,12,36,13.40
2020,10,17,12,37,13.40
2020,10,17,12,38,13.40
2020,10,17,12,39,13.40
2020,10,17,12,40,13.40
2020,10,17,12,41,13.40
2020,10,17,12,42,13.40
2020,10,17,12,43,13.50
2020,10,17,12,44,13.50
2020,10,17,12,45,13.50
2020,10,17,12,46,13.40
2020,10,17,12,47,13.40
2020,10,17,12,48,13.40
2020,10,17,12,49,13.40
2020,10,17,12,50,13.40
2020,10,17,12,51,13.40
2020,10,17,12,52,13.40
2020,10,17,12,53,13.40
2020,10,17,12,54,13.40
2020,10,17,12,55,13.40
2020,10,17,12,56,13.40
2020,10,17,12,57,13.40
2020,10,17,12,58,13.30
2020,10,17,12,59,13.30
2020,10,17,13,00,13.30
2020,10,17,13,01,13.30
2020,10,17,13,02,13.30
2020,10,17,13,03,13.30
2020,10,17,13,04,13.30
2020,10,17,13,05,13.40
2020,10,17,13,06,13.40
2020,10,17,13,07,13.40
2020,10,17,13,08,13.40
2020,10,17,13,09,13.30
2020,10,17,13,10,13.30
2020,10,17,13,11,13.30
2020,10,17,13,12,13.30
2020,10,17,13,13,13.30
2020,10,17,13,14,13.30
2020,10,17,13,15,13.30
2020,10,17,13,16,13.20
2020,10,17,13,17,13.20
2020,10,17,13,18,13.20
2020,10,17,13,19,13.20
2020,10,17,13,20,13.20
2020,10,17,13,21,13.10
2020,10,17,13,22,13.10
2020,10,17,13,23,13.00
2020,10,17,13,24,13.00
2020,10,17,13,25,13.00
2020,10,17,13,26,12.90
2020,10,17,13,27,12.90
2020,10,17,13,28,12.90
2020,10,17,13,29,12.90
2020,10,17,13,30,12.80
2020,10,17,13,31,12.80
2020,10,17,13,32,12.80
2020,10,17,13,33,12.80
2020,10,17,13,34,12.80
2020,10,17,13,35,12.80
2020,10,17,13,36,12.80
2020,10,17,13,37,12.70
2020,10,17,13,38,12.70
2020,10,17,13,39,12.70
2020,10,17,13,40,12.70
2020,10,17,13,41,12.70
2020,10,17,13,42,12.60
2020,10,17,13,43,12.60
2020,10,17,13,44,12.60
2020,10,17,13,45,12.60
2020,10,17,13,46,12.50
2020,10,17,13,47,12.50
2020,10,17,13,48,12.50
2020,10,17,13,49,12.40
2020,10,17,13,50,12.40
2020,10,17,13,51,12.40
2020,10,17,13,52,12.40
2020,10,17,13,53,12.40
2020,10,17,13,54,12.30
2020,10,17,13,55,12.30
2020,10,17,13,56,12.30
2020,10,17,13,57,12.30
2020,10,17,13,58,12.30
2020,10,17,13,59,12.30
2020,10,17,14,00,12.30
2020,10,17,14,01,12.30
2020,10,17,14,02,12.30
2020,10,17,14,03,12.30
2020,10,17,14,04,12.30
2020,10,17,14,05,12.30
2020,10,17,14,06,12.20
2020,10,17,14,07,12.20
2020,10,17,14,08,12.20
2020,10,17,14,09,12.20
2020,10,17,14,10,12.20
2020,10,17,14,11,12.20
2020,10,17,14,12,12.30
2020,10,17,14,13,12.30
2020,10,17,14,14,12.30
2020,10,17,14,15,12.30
2020,10,17,14,16,12.30
2020,10,17,14,17,12.30
2020,10,17,14,18,12.30
2020,10,17,14,19,12.30
2020,10,17,14,20,12.30
2020,10,17,14,21,12.30
2020,10,17,14,22,12.30
2020,10,17,14,23,12.30
2020,10,17,14,24,12.30
2020,10,17,14,25,12.30
2020,10,17,14,26,12.40
2020,10,17,14,27,12.40
2020,10,17,14,28,12.40
2020,10,17,14,29,12.40
2020,10,17,14,30,12.40
2020,10,17,14,31,12.40
2020,10,17,14,32,12.50
2020,10,17,14,33,12.50
2020,10,17,14,34,12.50
2020,10,17,14,35,12.60
2020,10,17,14,36,12.60
2020,10,17,14,37,12.60
2020,10,17,14,38,12.60
2020,10,17,14,39,12.60
2020,10,17,14,40,12.70
2020,10,17,14,41,12.70
2020,10,17,14,42,12.70
2020,10,17,14,43,12.70
2020,10,17,14,44,12.70
2020,10,17,14,45,12.70
2020,10,17,14,46,12.70
2020,10,17,14,47,12.70
2020,10,17,14,48,12.80
2020,10,17,14,49,12.80
2020,10,17,14,50,12.80
2020,10,17,14,51,12.80
2020,10,17,14,52,12.80
2020,10,17,14,53,12.90
2020,10,17,14,54,12.90
2020,10,17,14,55,12.90
2020,10,17,14,56,12.90
2020,10,17,14,57,12.90
2020,10,17,14,58,12.90
2020,10,17,14,59,12.90
2020,10,17,15,00,12.90
2020,10,17,15,01,12.90
2020,10,17,15,02,12.90
2020,10,17,15,03,12.90
2020,10,17,15,04,12.90
2020,10,17,15,05,12.90
2020,10,17,15,06,12.90
2020,10,17,15,07,12.90
2020,10,17,15,08,13.00
2020,10,17,15,09,13.00
2020,10,17,15,10,13.00
2020,10,17,15,11,13.00
2020,10,17,15,12,13.10
2020,10,17,15,13,13.10
2020,10,17,15,14,13.10
2020,10,17,15,15,13.10
2020,10,17,15,16,13.10
2020,10,17,15,17,13.10
2020,10,17,15,18,13.10
2020,10,17,15,19,13.10
2020,10,17,15,20,13.10
2020,10,17,15,21,13.10
2020,10,17,15,22,13.10
2020,10,17,15,23,13.10
2020,10,17,15,24,13.10
2020,10,17,15,25,13.10
2020,10,17,15,26,13.00
2020,10,17,15,27,13.00
2020,10,17,15,28,13.00
2020,10,17,15,29,13.00
2020,10,17,15,30,12.90
2020,10,17,15,31,12.90
2020,10,17,15,32,12.90
2020,10,17,15,33,12.90
2020,10,17,15,34,12.90
2020,10,17,15,35,12.90
2020,10,17,15,36,12.80
2020,10,17,15,37,12.80
2020,10,17,15,38,12.80
2020,10,17,15,39,12.80
2020,10,17,15,40,12.80
2020,10,17,15,41,12.80
2020,10,17,15,42,12.80
2020,10,17,15,43,12.70
2020,10,17,15,44,12.70
2020,10,17,15,45,12.70
2020,10,17,15,46,12.70
2020,10,17,15,47,12.70
2020,10,17,15,48,12.70
2020,10,17,15,49,12.70
2020,10,17,15,50,12.70
2020,10,17,15,51,12.70
2020,10,17,15,52,12.60
2020,10,17,15,53,12.60
2020,10,17,15,54,12.60
2020,10,17,15,55,12.60
2020,10,17,15,56,12.60
2020,10,17,15,57,12.60
2020,10,17,15,58,12.50
2020,10,17,15,59,12.50
2020,10,17,16,00,12.50
2020,10,17,16,01,12.50
2020,10,17,16,02,12.50
2020,10,17,16,03,12.40
2020,10,17,16,04,12.40
2020,10,17,16,05,12.40
2020,10,17,16,06,12.40
2020,10,17,16,07,12.40
2020,10,17,16,08,12.40
2020,10,17,16,09,12.40
2020,10,17,16,10,12.40
2020,10,17,16,11,12.40
2020,10,17,16,12,12.40
2020,10,17,16,13,12.40
2020,10,17,16,14,12.40
2020,10,17,16,15,12.40
2020,10,17,16,16,12.50
2020,10,17,16,17,12.50
2020,10,17,16,18,12.50
2020,10,17,16,19,12.50
2020,10,17,16,20,12.50
2020,10,17,16,21,12.50
2020,10,17,16,22,12.40
2020,10,17,16,23,12.40
2020,10,17,16,24,12.40
2020,10,17,16,25,12.40
2020,10,17,16,26,12.40
2020,10,17,16,27,12.40
2020,10,17,16,28,12.40
2020,10,17,16,29,12.40
2020,10,17,16,30,12.40
2020,10,17,16,31,12.40
2020,10,17,16,32,12.40
2020,10,17,16,33,12.40
2020,10,17,16,34,12.40
2020,10,17,16,35,12.40
2020,10,17,16,36,12.40
2020,10,17,16,37,12.30
2020,10,17,16,38,12.30
2020,10,17,16,39,12.30
2020,10,17,16,40,12.30
2020,10,17,16,41,12.30
2020,10,17,16,42,12.30
2020,10,17,16,43,12.30
2020,10,17,16,44,12.30
2020,10,17,16,45,12.30
2020,10,17,16,46,12.30
2020,10,17,16,47,12.30
2020,10,17,16,48,12.30
2020,10,17,16,49,12.30
2020,10,17,16,50,12.20
2020,10,17,16,51,12.20
2020,10,17,16,52,12.20
2020,10,17,16,53,12.20
2020,10,17,16,54,12.20
2020,10,17,16,55,12.20
2020,10,17,16,56,12.20
2020,10,17,16,57,12.20
2020,10,17,16,58,12.20
2020,10,17,16,59,12.20
2020,10,17,17,00,12.20
2020,10,17,17,01,12.20
2020,10,17,17,02,12.20
2020,10,17,17,03,12.20
2020,10,17,17,04,12.20
2020,10,17,17,05,12.20
2020,10,17,17,06,12.20
2020,10,17,17,07,12.20
2020,10,17,17,08,12.10
2020,10,17,17,09,12.10
2020,10,17,17,10,12.10
2020,10,17,17,11,12.10
2020,10,17,17,12,12.10
2020,10,17,17,13,12.10
2020,10,17,17,14,12.10
2020,10,17,17,15,12.10
2020,10,17,17,16,12.10
2020,10,17,17,17,12.10
2020,10,17,17,18,12.10
2020,10,17,17,19,12.00
2020,10,17,17,20,12.00
2020,10,17,17,21,12.00
2020,10,17,17,22,11.90
2020,10,17,17,23,11.90
2020,10,17,17,24,11.90
2020,10,17,17,25,11.90
2020,10,17,17,26,11.80
2020,10,17,17,27,11.80
2020,10,17,17,28,11.80